Content
SEND FEEDBACK

Daily
Averages
Monthly
Summary
United States of America

ARCADIA, LOUISIANA


Home > North America > United States > Louisiana
Elevation: 400 feet     Latitude: 32 33N     Longitude: 092 55W

WEATHER
 
SELECT A DAY
Number of Records: 218,419;   Date Range: 10/26/00 - 9/3/14
 
SHARE

PRINT THIS DATA

[ ← Previous Day ]
WEATHER ALMANAC - JANUARY 31, 2013
[ Next Day → ]
[ °C ]   °F
Weather ElementAverageHighLow
Temperature46.8 °F62.2 °F (3:35 pm)30 °F (6:55 am)
Dewpoint26 °F30.9 °F (10:35 pm)17.4 °F (2:35 pm)
Humidity52.1 %100 % (6:55 am)18 % (2:35 pm)
Barometer30.24 in30.31 in (11:15 pm)30.18 in (12:55 am)
Wind Speed6.1 mph11.5 mph (12:55 pm)
Wind Gust18.4 mph (2:55 pm)
Weather ElementAverage
Visibility10 mi
Wind DirectionSSW (195.2 °)

Weather ElementTotal
Precipitation---
Heating Degree Days18.9 (Base 65)
Averaged from 69 records on January 31, 2013
WEATHER CONDITIONS BREAKOUT
WIND DIRECTION BREAKOUT
WEATHER BY HOUR - JANUARY 31, 2013
[ °C ]   °F
Local TimeTemperatureDewpointHumidityBarometerVisibilityWind DirectionWind SpeedGust SpeedPrecipitationEventsConditions
12:35 AM35.8 °F29.3 °F77 %30.19 in10.0 miSW (230°)4.6 mphClear
12:55 AM35.2 °F29.3 °F79 %30.18 in10.0 miSW (230°)4.6 mphClear
1:15 AM35.2 °F29.3 °F79 %30.19 in10.0 miWSW (240°)3.5 mphClear
1:35 AM34.7 °F29.7 °F82 %30.20 in10.0 miSW (220°)5.8 mphClear
1:55 AM34.7 °F29.3 °F81 %30.19 in10.0 miSW (220°)4.6 mphClear
2:15 AM34.0 °F29.8 °F85 %30.20 in10.0 miSW (220°)4.6 mphClear
2:35 AM34.3 °F30.2 °F85 %30.20 in10.0 miSW (220°)6.9 mphClear
2:55 AM34.9 °F30.2 °F83 %30.21 in10.0 miSW (220°)5.8 mphClear
3:15 AM34.5 °F30.2 °F84 %30.21 in10.0 miSSW (210°)6.9 mphClear
3:35 AM34.2 °F30.2 °F85 %30.21 in10.0 miSW (220°)6.9 mphClear
3:55 AM34.3 °F30.2 °F85 %30.21 in10.0 miSSW (210°)6.9 mphClear
4:15 AM34.0 °F30.2 °F86 %30.20 in10.0 miSW (220°)5.8 mphClear
4:35 AM34.2 °F30.2 °F85 %30.20 in10.0 miSSW (210°)9.2 mphClear
5:15 AM34.5 °F29.3 °F81 %30.20 in10.0 miWSW (240°)4.6 mphClear
5:35 AM33.6 °F29.7 °F85 %30.20 in10.0 miCalmClear
5:55 AM33.1 °F29.7 °F87 %30.21 in10.0 miCalmClear
6:15 AM32.4 °F29.5 °F89 %30.21 in10.0 miCalmClear
6:35 AM30.6 °F29.5 °F96 %30.21 in10.0 miCalmClear
6:55 AM30.0 °F30.0 °F100 %30.22 in10.0 miCalmClear
7:15 AM30.7 °F30.7 °F100 %30.23 in10.0 miSSW (200°)4.6 mphClear
7:35 AM33.8 °F30.0 °F86 %30.25 in10.0 miSW (220°)4.6 mphClear
7:55 AM35.2 °F30.2 °F82 %30.26 in10.0 miSW (220°)6.9 mphClear
8:15 AM37.4 °F30.2 °F75 %30.26 in10.0 miSW (230°)5.8 mphClear
8:35 AM39.6 °F30.2 °F69 %30.27 in10.0 miSW (220°)5.8 mphClear
8:55 AM42.1 °F30.4 °F63 %30.29 in10.0 miSW (230°)6.9 mphClear
9:15 AM44.8 °F29.1 °F54 %30.29 in10.0 miSW (220°)6.9 mphClear
9:35 AM47.1 °F27.3 °F46 %30.29 in10.0 miWSW (250°)8.1 mphClear
9:55 AM49.1 °F26.8 °F42 %30.29 in10.0 miWSW (240°)8.1 mphClear
10:15 AM50.4 °F26.6 °F40 %30.29 in10.0 miSW (230°)9.2 mphClear
10:35 AM51.8 °F26.6 °F38 %30.29 in10.0 miWSW (250°)6.9 mphClear
10:55 AM54.1 °F23.5 °F31 %30.28 in10.0 miSW (220°)8.1 mphClear
11:15 AM55.0 °F22.1 °F28 %30.28 in10.0 miWSW (240°)10.4 mph16.1 mphClear
11:55 AM57.4 °F20.3 °F24 %30.27 in10.0 miSW (220°)10.4 mphClear
12:15 PM59.7 °F21.4 °F23 %30.26 in10.0 miSW (220°)6.9 mphClear
12:35 PM59.5 °F19.8 °F21 %30.25 in10.0 miWSW (250°)9.2 mph16.1 mphClear
12:55 PM59.7 °F19.4 °F21 %30.25 in10.0 miWest (260°)11.5 mph16.1 mphClear
1:15 PM60.1 °F17.8 °F19 %30.24 in10.0 miWSW (250°)9.2 mph16.1 mphClear
1:35 PM60.6 °F18.7 °F20 %30.23 in10.0 miWSW (240°)9.2 mphClear
1:55 PM61.5 °F19.2 °F20 %30.23 in10.0 miWSW (240°)9.2 mphClear
2:15 PM61.7 °F19.0 °F19 %30.22 in10.0 miWSW (240°)9.2 mphClear
2:35 PM61.7 °F17.4 °F18 %30.22 in10.0 miWSW (240°)10.4 mph17.3 mphClear
2:55 PM61.9 °F17.4 °F18 %30.21 in10.0 miSW (230°)10.4 mph18.4 mphClear
3:15 PM61.9 °F18.7 °F19 %30.21 in10.0 miWest (260°)10.4 mphClear
3:35 PM62.2 °F19.9 °F20 %30.21 in10.0 miSW (220°)9.2 mphClear
3:55 PM62.1 °F18.9 °F19 %30.21 in10.0 miSSW (210°)11.5 mphClear
4:15 PM61.7 °F18.3 °F19 %30.21 in10.0 miSW (220°)11.5 mphClear
4:35 PM61.0 °F18.3 °F19 %30.21 in10.0 miSW (220°)9.2 mph16.1 mphClear
4:55 PM60.3 °F19.4 °F21 %30.21 in10.0 miSW (220°)6.9 mphClear
5:15 PM59.4 °F19.0 °F21 %30.21 in10.0 miSW (220°)6.9 mphClear
5:35 PM57.2 °F21.4 °F25 %30.21 in10.0 miSSW (200°)5.8 mphClear
5:55 PM55.8 °F23.0 °F28 %30.21 in10.0 miSSW (200°)6.9 mphClear
6:15 PM54.1 °F24.3 °F31 %30.21 in10.0 miSSW (200°)5.8 mphClear
6:35 PM51.3 °F26.8 °F39 %30.22 in10.0 miSSW (210°)4.6 mphClear
6:55 PM52.2 °F25.5 °F36 %30.23 in10.0 miSW (220°)4.6 mphClear
7:15 PM52.9 °F24.1 °F33 %30.24 in10.0 miSW (220°)5.8 mphClear
7:35 PM52.9 °F24.1 °F33 %30.25 in10.0 miSW (220°)4.6 mphClear
7:55 PM51.1 °F25.7 °F37 %30.26 in10.0 miSW (220°)3.5 mphClear
8:15 PM48.6 °F27.5 °F44 %30.26 in10.0 miCalmClear
8:35 PM46.6 °F28.2 °F49 %30.28 in10.0 miCalmClear
8:55 PM45.0 °F29.5 °F55 %30.28 in10.0 miSW (220°)3.5 mphClear
9:15 PM46.2 °F28.2 °F50 %30.29 in10.0 miSW (220°)4.6 mphClear
9:35 PM46.4 °F28.2 °F49 %30.29 in10.0 miSW (220°)4.6 mphClear
9:55 PM46.8 °F27.7 °F47 %30.30 in10.0 miCalmClear
10:15 PM43.7 °F30.0 °F59 %30.30 in10.0 miCalmClear
10:35 PM42.3 °F30.9 °F64 %30.30 in10.0 miSSW (210°)4.6 mphClear
10:55 PM43.7 °F29.3 °F57 %30.30 in10.0 miSSW (210°)5.8 mphClear
11:15 PM46.6 °F28.8 °F50 %30.31 in10.0 miSW (220°)8.1 mphClear
11:35 PM47.7 °F28.9 °F48 %30.30 in10.0 miSW (220°)6.9 mphClear
11:55 PM47.3 °F29.1 °F49 %30.31 in10.0 miSW (220°)8.1 mphClear
Hourly data recorded from KRSN, located miles away from Arcadia, Louisiana







STORIES FROM OUR PARTNERS